TimeCST,TemperatureF,Dew PointF,Humidity,Sea Level PressureIn,VisibilityMPH,Wind Direction,Wind SpeedMPH,Gust SpeedMPH,PrecipitationIn,Events,Conditions,WindDirDegrees,DateUTC
12:08 AM,34.0,27.1,76,-9999,-9999.0,NNE,10.4,-,N/A,,Unknown,20,2012-12-09 06:08:00
12:28 AM,34.0,27.1,76,-9999,-9999.0,North,9.2,-,N/A,,Unknown,350,2012-12-09 06:28:00
12:48 AM,35.1,27.1,73,-9999,-9999.0,North,15.0,-,N/A,,Unknown,360,2012-12-09 06:48:00
1:08 AM,35.1,27.1,73,-9999,-9999.0,North,12.7,-,N/A,,Unknown,360,2012-12-09 07:08:00
1:28 AM,35.1,22.1,59,-9999,-9999.0,North,18.4,-,N/A,,Unknown,360,2012-12-09 07:28:00
1:48 AM,34.0,20.1,57,-9999,-9999.0,North,16.1,-,N/A,,Unknown,360,2012-12-09 07:48:00
2:08 AM,33.1,18.1,54,-9999,-9999.0,North,13.8,-,N/A,,Unknown,350,2012-12-09 08:08:00
2:28 AM,32.0,16.2,52,-9999,-9999.0,NNW,15.0,-,N/A,,Unknown,340,2012-12-09 08:28:00
2:48 AM,32.0,15.1,50,-9999,-9999.0,NNW,17.3,-,N/A,,Unknown,340,2012-12-09 08:48:00
3:08 AM,30.9,15.1,52,-9999,-9999.0,NNW,15.0,-,N/A,,Unknown,340,2012-12-09 09:08:00
3:28 AM,30.9,12.0,46,-9999,-9999.0,NNW,17.3,-,N/A,,Unknown,340,2012-12-09 09:28:00
3:48 AM,30.0,13.1,49,-9999,-9999.0,NNW,15.0,-,N/A,,Unknown,340,2012-12-09 09:48:00
4:08 AM,30.0,13.1,49,-9999,-9999.0,NNW,13.8,-,N/A,,Unknown,340,2012-12-09 10:08:00
4:28 AM,28.9,13.1,52,-9999,-9999.0,NNW,11.5,-,N/A,,Unknown,340,2012-12-09 10:28:00
4:48 AM,28.9,14.0,54,-9999,-9999.0,NW,8.1,-,N/A,,Unknown,320,2012-12-09 10:48:00
5:08 AM,28.0,13.1,54,-9999,-9999.0,NNW,8.1,-,N/A,,Unknown,330,2012-12-09 11:08:00
5:28 AM,28.0,13.1,54,-9999,-9999.0,NNW,10.4,-,N/A,,Unknown,330,2012-12-09 11:28:00
5:48 AM,28.0,13.1,54,-9999,-9999.0,NNW,10.4,-,N/A,,Unknown,340,2012-12-09 11:48:00
6:08 AM,27.0,12.0,53,-9999,-9999.0,NNW,9.2,-,N/A,,Unknown,340,2012-12-09 12:08:00
6:28 AM,27.0,12.0,53,-9999,-9999.0,NNW,6.9,-,N/A,,Unknown,330,2012-12-09 12:28:00
6:48 AM,28.0,12.0,51,-9999,-9999.0,NNW,9.2,-,N/A,,Unknown,330,2012-12-09 12:48:00
7:08 AM,28.9,11.1,47,-9999,-9999.0,NNW,11.5,-,N/A,,Unknown,340,2012-12-09 13:08:00
7:28 AM,28.9,12.0,49,-9999,-9999.0,NNW,11.5,-,N/A,,Unknown,340,2012-12-09 13:28:00
7:48 AM,28.9,10.0,45,-9999,-9999.0,North,11.5,-,N/A,,Unknown,350,2012-12-09 13:48:00
8:08 AM,28.9,8.1,41,-9999,-9999.0,NNW,16.1,-,N/A,,Unknown,340,2012-12-09 14:08:00
8:28 AM,28.9,8.1,41,-9999,-9999.0,North,15.0,-,N/A,,Unknown,350,2012-12-09 14:28:00
8:48 AM,28.9,9.1,43,-9999,-9999.0,North,12.7,-,N/A,,Unknown,350,2012-12-09 14:48:00
9:08 AM,28.9,6.1,38,-9999,-9999.0,NNW,19.6,-,N/A,,Unknown,340,2012-12-09 15:08:00
9:28 AM,28.9,7.2,40,-9999,-9999.0,NNW,17.3,-,N/A,,Unknown,340,2012-12-09 15:28:00
9:48 AM,28.9,6.1,38,-9999,-9999.0,NNW,17.3,-,N/A,,Unknown,340,2012-12-09 15:48:00
10:08 AM,28.9,8.1,41,-9999,-9999.0,NNW,15.0,-,N/A,,Unknown,330,2012-12-09 16:08:00
10:28 AM,28.9,6.1,38,-9999,-9999.0,NNW,17.3,-,N/A,,Unknown,340,2012-12-09 16:28:00
10:48 AM,28.9,7.2,40,-9999,-9999.0,NNW,16.1,-,N/A,,Unknown,340,2012-12-09 16:48:00
11:08 AM,28.0,6.1,39,-9999,-9999.0,NW,16.1,-,N/A,,Unknown,320,2012-12-09 17:08:00
11:28 AM,28.0,5.0,38,-9999,-9999.0,NNW,20.7,-,N/A,,Unknown,330,2012-12-09 17:28:00
11:48 AM,28.0,5.0,38,-9999,-9999.0,NNW,18.4,-,N/A,,Unknown,330,2012-12-09 17:48:00
12:08 PM,28.0,3.0,34,-9999,-9999.0,NNW,18.4,-,N/A,,Unknown,330,2012-12-09 18:08:00
12:28 PM,28.0,2.1,33,-9999,-9999.0,NNW,19.6,-,N/A,,Unknown,340,2012-12-09 18:28:00
12:48 PM,28.0,5.0,38,-9999,-9999.0,NNW,16.1,-,N/A,,Unknown,330,2012-12-09 18:48:00
1:08 PM,28.0,1.0,31,-9999,-9999.0,NNW,21.9,-,N/A,,Unknown,340,2012-12-09 19:08:00
1:28 PM,28.0,4.1,36,-9999,-9999.0,NNW,17.3,-,N/A,,Unknown,330,2012-12-09 19:28:00
1:48 PM,28.0,3.0,34,-9999,-9999.0,NW,16.1,-,N/A,,Unknown,320,2012-12-09 19:48:00
2:08 PM,28.0,2.1,33,-9999,-9999.0,NNW,18.4,-,N/A,,Unknown,340,2012-12-09 20:08:00
2:28 PM,27.0,3.0,36,-9999,-9999.0,NNW,18.4,-,N/A,,Unknown,340,2012-12-09 20:28:00
2:48 PM,27.0,3.0,36,-9999,-9999.0,NNW,17.3,-,N/A,,Unknown,340,2012-12-09 20:48:00
3:08 PM,27.0,4.1,38,-9999,-9999.0,NNW,17.3,-,N/A,,Unknown,340,2012-12-09 21:08:00
3:28 PM,27.0,4.1,38,-9999,-9999.0,NNW,15.0,-,N/A,,Unknown,340,2012-12-09 21:28:00
3:48 PM,27.0,2.1,34,-9999,-9999.0,NNW,17.3,-,N/A,,Unknown,340,2012-12-09 21:48:00
4:08 PM,27.0,2.1,34,-9999,-9999.0,NNW,20.7,-,N/A,,Unknown,340,2012-12-09 22:08:00
4:28 PM,27.0,2.1,34,-9999,-9999.0,NNW,13.8,-,N/A,,Unknown,340,2012-12-09 22:28:00
4:48 PM,27.0,2.1,34,-9999,-9999.0,NNW,15.0,-,N/A,,Unknown,340,2012-12-09 22:48:00
5:08 PM,27.0,0.1,32,-9999,-9999.0,NNW,19.6,-,N/A,,Unknown,340,2012-12-09 23:08:00
5:28 PM,26.1,0.1,33,-9999,-9999.0,NNW,19.6,-,N/A,,Unknown,340,2012-12-09 23:28:00
5:48 PM,26.1,2.1,36,-9999,-9999.0,NNW,18.4,-,N/A,,Unknown,340,2012-12-09 23:48:00
6:08 PM,26.1,2.1,36,-9999,-9999.0,NNW,15.0,-,N/A,,Unknown,340,2012-12-10 00:08:00
6:28 PM,25.0,1.0,36,-9999,-9999.0,NNW,13.8,-,N/A,,Unknown,340,2012-12-10 00:28:00
6:48 PM,25.0,1.0,36,-9999,-9999.0,NNW,15.0,-,N/A,,Unknown,340,2012-12-10 00:48:00
7:08 PM,25.0,2.1,37,-9999,-9999.0,North,16.1,-,N/A,,Unknown,350,2012-12-10 01:08:00
7:28 PM,24.1,0.1,35,-9999,-9999.0,NNW,15.0,-,N/A,,Unknown,340,2012-12-10 01:28:00
7:48 PM,24.1,0.1,35,-9999,-9999.0,North,12.7,-,N/A,,Unknown,350,2012-12-10 01:48:00
8:08 PM,23.0,0.1,37,-9999,-9999.0,NNW,17.3,-,N/A,,Unknown,340,2012-12-10 02:08:00
8:28 PM,21.9,0.1,39,-9999,-9999.0,NNW,18.4,-,N/A,,Unknown,340,2012-12-10 02:28:00
8:48 PM,21.0,0.1,40,-9999,-9999.0,NNW,12.7,-,N/A,,Unknown,340,2012-12-10 02:48:00
9:08 PM,19.9,0.1,42,-9999,-9999.0,NNW,11.5,-,N/A,,Unknown,340,2012-12-10 03:08:00
9:28 PM,19.0,-0.9,42,-9999,-9999.0,NNW,13.8,-,N/A,,Unknown,340,2012-12-10 03:28:00
9:48 PM,18.0,0.1,46,-9999,-9999.0,NNW,10.4,-,N/A,,Unknown,340,2012-12-10 03:48:00
10:08 PM,18.0,-1.8,42,-9999,-9999.0,NNW,10.4,-,N/A,,Unknown,340,2012-12-10 04:08:00
10:28 PM,17.1,0.1,48,-9999,-9999.0,NW,11.5,-,N/A,,Unknown,320,2012-12-10 04:28:00
10:48 PM,16.0,-1.8,45,-9999,-9999.0,NNW,10.4,-,N/A,,Unknown,330,2012-12-10 04:48:00
11:08 PM,16.0,-1.8,45,-9999,-9999.0,NNW,10.4,-,N/A,,Unknown,330,2012-12-10 05:08:00
11:28 PM,15.1,-1.8,47,-9999,-9999.0,NW,11.5,-,N/A,,Unknown,320,2012-12-10 05:28:00
11:48 PM,15.1,0.1,52,-9999,-9999.0,NNW,8.1,-,N/A,,Unknown,330,2012-12-10 05:48:00